Wind_Speed
14 14 14 13 13 13 12 12 12 12 12 12 12 12 12 11 11 11 10 10 10 10 10 9 9 9 9 9 9 9 9 9 8 9 9 9 9 9 9 8 8 7 7
15 15 15 15 14 14 13 13 13 13 13 13 13 13 13 13 13 12 12 12 12 11 11 11 11 11 11 11 11 10 10 10 10 10 11 10 10 10 10 10 9 8 8
16 16 16 15 15 15 14 14 13 13 14 14 14 14 14 14 14 14 14 13 13 13 13 13 13 13 12 12 12 12 11 11 11 11 12 12 11 11 11 11 11 10 10
17 17 17 16 16 16 15 15 15 14 15 15 15 15 15 14 15 15 15 15 14 14 14 14 15 15 14 14 14 13 12 12 11 11 12 12 12 12 11 12 12 12 11
18 18 18 17 17 17 17 17 16 16 16 16 16 16 16 16 16 16 16 16 16 16 15 16 15 16 16 15 15 14 14 13 12 12 13 13 13 13 13 13 13 13 12
20 19 19 19 18 18 19 19 18 17 18 17 17 17 17 17 17 17 17 17 17 17 17 17 16 16 16 16 15 14 15 15 14 13 14 15 15 14 14 14 13 14 14
22 21 21 21 20 20 19 19 19 19 19 19 19 19 19 19 20 20 19 19 19 19 19 18 18 18 17 17 17 16 16 16 15 15 15 16 16 16 15 15 15 15 15
24 23 23 23 22 22 22 21 21 21 21 21 21 21 20 21 21 21 21 21 21 21 20 20 20 20 19 18 18 18 17 17 17 17 17 17 17 17 17 17 17 17 16
26 25 25 25 24 24 24 24 24 23 23 23 24 24 23 23 23 24 23 23 23 23 22 22 21 21 21 21 20 19 18 18 18 19 18 18 18 18 18 18 19 18 18
27 27 27 26 26 26 26 26 25 25 25 25 26 26 26 26 26 25 25 25 24 24 24 24 24 23 23 23 22 21 21 20 20 20 20 20 20 20 20 20 20 20 20
29 29 29 28 27 28 27 27 27 27 27 27 28 28 28 28 28 27 27 27 27 26 26 26 26 26 25 24 24 23 23 23 22 22 22 21 21 21 22 22 21 21 21
30 30 30 30 30 30 30 29 29 29 29 29 30 30 30 30 30 29 29 29 29 28 28 28 28 27 27 27 27 26 25 25 25 24 24 24 23 23 23 23 22 22 22
32 32 32 32 32 32 32 32 31 31 31 31 31 31 32 32 32 32 32 31 31 31 30 30 30 30 30 30 30 30 29 28 28 28 27 27 26 26 25 25 25 24 24
34 34 34 34 34 34 34 34 34 33 32 33 33 33 33 33 33 33 34 34 34 33 33 32 32 32 32 31 31 31 31 31 30 30 30 29 29 28 28 28 27 27 26
35 36 35 35 35 35 35 35 35 35 35 35 35 36 36 36 36 36 36 36 36 36 36 35 35 34 34 34 34 34 33 33 33 32 32 31 30 30 30 29 29 29 28
37 38 38 38 37 37 37 36 37 37 37 37 38 37 38 38 38 38 38 38 38 38 38 37 37 37 37 36 36 36 36 35 34 34 34 34 33 32 31 31 31 30 30
38 39 39 39 39 39 39 39 39 39 39 39 39 39 39 39 39 39 40 40 40 40 40 39 39 39 38 39 38 37 38 38 37 36 36 36 36 35 34 33 33 32 32
39 40 40 41 41 40 40 41 41 40 41 41 41 41 41 41 41 41 41 41 41 41 41 41 41 41 41 41 41 40 40 39 39 39 38 37 37 37 37 36 36 35 35
41 41 42 42 42 42 42 42 41 42 42 42 42 42 42 42 42 42 42 42 41 41 42 42 42 43 42 42 42 42 41 41 41 40 40 40 39 39 38 38 38 38 37
42 42 43 43 44 43 43 42 42 42 43 43 44 44 43 44 44 44 44 44 42 43 43 43 43 43 43 43 44 44 43 42 42 43 42 42 41 41 40 40 40 40 39
44 43 43 44 44 44 44 43 43 43 43 44 45 46 46 46 46 46 46 46 45 45 44 43 43 43 44 44 45 45 45 45 45 45 45 44 44 43 43 43 42 42 41
44 44 44 45 44 45 45 44 43 44 45 45 46 46 47 47 46 47 47 47 46 46 45 45 44 44 44 45 46 46 47 47 47 47 47 46 46 45 45 44 44 44 43
43 45 45 45 45 46 46 45 45 45 45 46 46 46 47 47 47 47 47 47 47 47 47 47 46 46 46 46 46 46 47 48 49 48 48 48 47 47 47 47 46 46 45
43 45 46 46 47 47 46 45 45 46 46 46 46 46 47 48 48 47 47 47 47 47 48 48 47 47 47 47 48 48 48 48 49 49 50 50 49 49 49 48 48 49 49
44 45 46 46 47 47 46 46 46 46 47 47 47 47 47 48 48 49 48 48 48 49 49 49 49 49 49 49 48 49 49 49 50 50 50 50 50 51 51 51 50 50 51
44 45 46 46 46 47 47 47 47 46 47 47 48 48 48 48 49 49 49 49 50 51 51 51 51 51 51 50 50 50 50 49 50 50 50 50 51 52 53 53 52 52 52
Wind_Direction
247 248 250 251 251 252 253 253 255 258 258 259 260 260 258 253 250 248 247 248 250 249 242 239 235 233 232 235 235 233 235 238 239 238 231 223 216 210 207 209 210 206 208
247 248 249 250 252 255 256 256 257 260 261 262 262 262 260 256 252 249 249 249 248 248 248 244 242 240 236 237 239 240 240 240 243 240 233 226 222 215 213 213 218 217 216
247 250 251 252 252 255 259 259 258 260 263 262 261 260 259 256 253 250 248 248 248 248 249 252 246 245 243 241 242 243 244 243 244 237 231 229 225 219 222 218 222 222 221
248 249 251 252 252 254 257 260 261 264 266 264 262 259 256 255 254 253 251 246 245 247 247 247 247 244 243 242 243 243 245 243 240 234 228 229 228 227 230 224 224 225 227
249 250 251 252 253 253 254 257 261 263 265 264 262 259 256 254 253 252 250 247 245 246 245 244 248 245 243 244 245 245 245 243 240 235 231 229 230 233 232 227 230 230 231
248 249 251 253 253 254 256 257 259 261 261 261 260 259 256 254 253 251 251 249 247 247 246 246 249 249 245 244 246 247 246 244 241 238 235 234 235 236 235 233 233 235 236
249 249 250 251 252 254 256 258 259 260 261 259 259 260 258 256 254 252 252 249 248 247 247 247 248 249 248 247 246 245 244 243 241 240 239 239 239 238 238 237 236 239 241
249 249 251 252 252 253 255 257 259 260 260 259 259 259 257 257 256 254 253 252 248 247 248 249 249 247 246 247 248 247 246 244 243 241 241 241 241 240 240 240 241 242 243
249 250 251 253 254 254 255 256 259 261 260 259 258 257 256 256 256 255 254 253 250 250 250 249 249 249 249 249 248 248 248 247 247 245 243 244 244 243 242 242 242 243 243
250 250 251 252 254 254 255 256 258 260 260 259 257 258 257 256 256 254 253 252 251 250 251 251 251 251 251 250 248 247 248 248 248 246 245 245 245 244 243 243 243 243 244
250 251 252 253 254 255 255 256 257 258 259 260 258 257 257 257 256 255 253 252 251 250 251 251 251 251 251 252 250 248 247 247 248 248 247 246 245 244 243 243 244 245 246
251 251 253 254 254 255 255 256 257 258 258 259 259 258 258 257 256 255 254 253 252 251 250 251 251 251 251 252 251 249 249 248 248 249 249 249 248 248 247 247 248 249 249
251 252 253 255 256 256 257 258 258 258 258 259 259 259 258 258 257 256 255 254 253 252 251 251 251 251 251 251 251 251 251 251 250 250 250 251 250 250 250 249 249 250 250
252 253 254 255 257 258 258 259 259 259 259 258 258 258 257 257 256 255 255 255 254 254 253 252 251 251 251 251 250 251 252 252 251 252 252 252 252 252 251 250 251 251 251
254 254 254 255 256 258 258 258 259 259 259 259 259 258 258 257 256 255 255 255 255 254 254 254 253 252 252 252 252 252 252 252 251 252 252 252 251 251 251 251 251 251 251
255 256 256 257 256 258 258 258 259 259 259 260 259 259 259 258 257 256 255 254 254 254 254 254 254 253 251 251 252 252 252 252 252 252 252 252 252 252 252 251 251 250 250
255 256 257 258 258 258 258 259 259 260 260 260 260 259 259 258 258 257 256 255 254 254 254 253 253 253 252 251 252 253 252 252 252 252 252 252 252 253 253 253 252 251 251
256 256 257 257 257 258 258 259 259 259 260 260 259 259 258 258 258 257 257 256 256 255 254 253 252 252 253 252 251 252 252 252 252 252 252 252 253 253 254 254 254 253 253
256 258 258 258 258 258 258 258 260 260 260 260 259 259 259 258 257 257 257 256 255 254 253 254 252 252 252 253 252 252 252 252 253 253 253 253 253 253 254 254 255 255 255
258 258 258 259 258 257 258 258 259 260 260 261 260 259 259 258 258 257 256 255 254 253 252 252 253 253 253 252 252 252 252 251 252 253 254 253 253 254 254 255 256 255 256
259 259 258 258 259 258 258 258 259 259 260 260 261 260 259 258 257 256 257 255 254 253 252 252 252 253 253 254 254 253 252 252 251 253 253 253 253 254 255 255 256 256 256
258 258 258 258 259 259 260 260 260 260 260 260 261 260 259 258 256 255 256 255 254 253 252 252 252 254 254 254 254 254 252 253 253 253 253 253 253 254 254 255 256 256 256
259 258 258 258 259 260 261 261 261 261 261 261 261 259 258 257 256 254 254 254 253 253 253 253 253 254 254 254 253 254 253 252 252 252 253 253 254 254 254 255 256 256 257
260 258 258 259 259 260 261 261 262 261 261 261 260 259 257 256 255 255 254 254 254 254 253 253 253 253 253 253 253 254 255 254 253 252 253 253 254 254 255 255 256 257 257
263 262 260 260 261 260 262 262 262 260 260 259 259 258 257 257 256 255 255 255 255 254 254 253 254 254 253 254 254 255 255 255 254 254 253 254 254 255 255 256 257 257 258
265 264 261 260 261 261 261 262 262 261 259 258 258 257 257 257 256 255 255 255 255 254 254 254 254 254 254 254 254 255 255 255 255 255 255 255 256 256 256 256 257 257 258
Height
5820 5821 5822 5823 5823 5824 5825 5826 5827 5828 5828 5829 5830 5830 5831 5832 5833 5834 5836 5837 5837 5838 5839 5840 5842 5842 5844 5845 5846 5847 5848 5848 5849 5850 5851 5853 5854 5856 5857 5859 5860 5862 5863
5817 5818 5819 5820 5821 5822 5823 5823 5824 5825 5826 5827 5827 5828 5829 5830 5831 5832 5833 5835 5836 5837 5838 5839 5840 5841 5842 5843 5844 5845 5846 5846 5847 5848 5849 5850 5852 5854 5856 5857 5859 5860 5862
5814 5816 5817 5818 5818 5819 5820 5821 5821 5822 5823 5824 5825 5825 5826 5827 5828 5829 5831 5832 5834 5835 5836 5837 5838 5839 5840 5841 5842 5843 5843 5844 5844 5844 5846 5848 5850 5852 5854 5856 5857 5859 5860
5811 5812 5813 5814 5815 5816 5817 5818 5819 5820 5820 5821 5822 5822 5823 5824 5825 5826 5828 5829 5831 5832 5834 5835 5835 5837 5838 5839 5840 5840 5841 5842 5842 5842 5844 5846 5848 5850 5852 5854 5856 5857 5858
5808 5809 5810 5811 5812 5813 5814 5815 5816 5816 5817 5818 5818 5819 5820 5821 5823 5823 5825 5826 5828 5829 5831 5832 5833 5834 5835 5836 5837 5838 5839 5840 5841 5841 5843 5845 5847 5849 5851 5852 5854 5855 5856
5804 5805 5806 5807 5808 5809 5810 5811 5812 5813 5814 5814 5815 5816 5817 5818 5819 5820 5822 5823 5824 5826 5827 5829 5830 5831 5832 5833 5834 5835 5836 5838 5839 5840 5841 5843 5845 5847 5849 5850 5852 5853 5854
5799 5801 5802 5803 5804 5805 5806 5807 5808 5809 5810 5811 5812 5812 5813 5815 5816 5817 5818 5819 5821 5822 5824 5825 5826 5828 5829 5830 5831 5832 5834 5835 5837 5838 5839 5841 5843 5844 5846 5847 5849 5851 5852
5795 5797 5798 5799 5800 5801 5802 5803 5804 5805 5805 5806 5807 5808 5809 5810 5811 5813 5814 5815 5817 5818 5820 5821 5822 5824 5826 5827 5828 5829 5831 5832 5834 5835 5837 5838 5840 5842 5843 5844 5846 5848 5849
5790 5791 5793 5794 5795 5796 5797 5798 5799 5800 5801 5802 5803 5803 5804 5806 5807 5808 5810 5811 5813 5814 5816 5817 5819 5820 5822 5823 5825 5826 5827 5829 5830 5832 5833 5835 5837 5838 5840 5841 5843 5844 5845
5784 5786 5787 5789 5790 5791 5792 5793 5793 5794 5795 5796 5797 5798 5799 5800 5802 5803 5805 5806 5808 5809 5811 5813 5814 5816 5818 5819 5821 5822 5824 5825 5827 5828 5830 5831 5833 5834 5836 5837 5839 5840 5842
5778 5779 5781 5782 5784 5785 5786 5787 5788 5789 5789 5790 5791 5792 5793 5795 5796 5797 5799 5800 5802 5804 5806 5807 5809 5811 5813 5815 5816 5818 5819 5821 5822 5824 5826 5827 5829 5830 5832 5833 5835 5836 5838
5771 5773 5774 5776 5777 5778 5779 5780 5781 5782 5783 5784 5784 5786 5787 5788 5789 5791 5793 5794 5796 5798 5800 5801 5803 5805 5807 5809 5811 5813 5814 5816 5817 5819 5821 5822 5824 5826 5827 5829 5830 5832 5833
5764 5766 5767 5768 5770 5771 5772 5773 5774 5775 5776 5776 5777 5778 5780 5781 5782 5784 5786 5787 5789 5791 5793 5795 5797 5799 5801 5803 5805 5807 5809 5810 5812 5813 5815 5817 5819 5820 5822 5824 5825 5827 5828
5756 5758 5759 5760 5761 5762 5763 5764 5765 5766 5767 5769 5770 5771 5772 5774 5775 5776 5778 5780 5782 5784 5786 5788 5790 5792 5794 5796 5798 5800 5802 5804 5806 5808 5809 5811 5813 5815 5816 5818 5820 5821 5823
5747 5749 5750 5751 5752 5753 5755 5756 5757 5758 5759 5761 5762 5763 5764 5766 5767 5769 5770 5772 5774 5776 5778 5780 5782 5784 5786 5789 5791 5793 5795 5797 5799 5801 5803 5805 5807 5808 5810 5812 5813 5815 5817
5739 5740 5741 5742 5743 5744 5746 5747 5748 5749 5750 5752 5753 5754 5756 5757 5758 5760 5761 5763 5765 5767 5769 5772 5774 5776 5778 5780 5783 5785 5787 5789 5791 5794 5796 5798 5800 5802 5803 5805 5807 5808 5810
5729 5730 5731 5733 5734 5735 5736 5738 5739 5740 5741 5743 5744 5745 5746 5748 5749 5751 5752 5754 5756 5758 5760 5762 5764 5766 5769 5771 5773 5776 5778 5781 5783 5786 5788 5790 5792 5794 5796 5798 5800 5801 5803
5719 5720 5721 5723 5724 5725 5726 5727 5729 5730 5732 5733 5734 5736 5737 5738 5740 5741 5742 5744 5746 5748 5750 5752 5754 5757 5759 5761 5764 5767 5769 5772 5774 5777 5779 5781 5784 5786 5788 5790 5792 5794 5795
5708 5710 5711 5712 5713 5714 5716 5717 5718 5720 5721 5723 5724 5725 5727 5728 5729 5731 5732 5734 5736 5737 5739 5741 5744 5747 5749 5751 5754 5756 5759 5762 5764 5767 5770 5772 5774 5777 5779 5781 5783 5785 5787
5698 5699 5700 5701 5702 5704 5705 5706 5707 5709 5710 5711 5713 5714 5716 5717 5718 5720 5722 5723 5725 5727 5729 5731 5733 5736 5738 5741 5743 5746 5749 5751 5754 5757 5760 5762 5765 5767 5770 5772 5774 5776 5778
5686 5688 5689 5690 5691 5693 5694 5695 5696 5698 5699 5700 5701 5703 5704 5705 5707 5709 5710 5712 5714 5716 5719 5721 5723 5725 5727 5730 5733 5735 5738 5741 5744 5746 5749 5752 5755 5757 5760 5762 5764 5766 5768
5675 5676 5677 5678 5680 5681 5683 5683 5684 5686 5687 5688 5689 5690 5692 5693 5695 5697 5698 5700 5703 5705 5707 5709 5711 5714 5716 5719 5721 5724 5727 5730 5732 5735 5738 5741 5743 5746 5749 5751 5753 5755 5757
5663 5664 5665 5667 5668 5669 5670 5671 5672 5673 5674 5675 5676 5678 5679 5680 5682 5684 5686 5689 5691 5693 5696 5698 5700 5703 5705 5707 5709 5712 5715 5718 5721 5724 5726 5729 5732 5734 5737 5740 5742 5744 5746
5652 5652 5653 5654 5655 5656 5657 5658 5659 5660 5662 5663 5664 5665 5666 5668 5669 5671 5674 5676 5679 5681 5684 5686 5688 5691 5693 5695 5697 5700 5703 5705 5709 5712 5715 5717 5720 5722 5725 5728 5730 5732 5735
5640 5640 5641 5641 5642 5644 5644 5645 5646 5647 5648 5649 5651 5652 5653 5655 5657 5659 5661 5663 5666 5668 5671 5674 5676 5678 5681 5683 5685 5687 5690 5692 5695 5698 5703 5705 5707 5710 5712 5715 5717 5720 5722
5628 5627 5628 5629 5629 5630 5631 5632 5633 5634 5635 5636 5638 5639 5641 5642 5644 5645 5648 5650 5653 5655 5658 5661 5663 5665 5668 5670 5672 5675 5677 5679 5682 5685 5688 5692 5694 5697 5699 5701 5704 5706 5709